This demonstration page uses our WeatherBlox Daily Observations layout. Learn more.

Left ArrowRight Arrow

31.84235, -102.49876

Hourly Observations for August 3, 2015

Temp ( °F °C ) Dew Point ( °F °C ) Humidity (%) Winds ( mph kmh ) Pressure ( in mb ) Visibility ( mi km ) Precip ( " mm )
12:53 am 00:53 Mostly Clear with Light Rain 77 25 66 18.9 69 69 NNE 9 15 29.83 1010 10 16 0.00 0.03
1:53 am 01:53 Partly Cloudy 79 26.1 66 18.9 65 65 SE 5 7 29.80 1009 10 16 0.00 0.03
2:53 am 02:53 Clear 83 28.3 58 14.4 43 43 S 10 17 29.79 1009 10 16 0.00 0.00
3:53 am 03:53 Clear 83 28.3 57 13.9 41 41 S 16 26 29.78 1008 10 16 0.00 0.00
4:53 am 04:53 Clear 82 27.8 57 13.9 42 42 S 15 24 29.79 1009 10 16 0.00 0.00
5:53 am 05:53 Clear 81 27.2 56 13.3 42 42 S 13 20 29.80 1009 10 16 0.00 0.00
6:53 am 06:53 Mostly Cloudy 81 27.2 56 13.3 42 42 SSW 10 17 29.81 1010 10 16 0.00 0.00
7:09 am 07:09 Cloudy with Nearby Thunderstorms 80 26.7 56 13.3 44 44 S 9 15 29.83 1010 10 16 0.00 0.00
7:24 am 07:24 Cloudy 80 26.7 56 13.3 44 44 SSW 9 15 29.83 1010 10 16 0.00 0.00
7:36 am 07:36 Cloudy with Strong Thunderstorms 76 24.4 61 16.1 60 60 S 5 7 29.85 1011 3 4 0.08 2.03
7:46 am 07:46 Cloudy with Thunderstorms 76 24.4 63 17.2 64 64 VRB 5 7 29.88 1012 8 13 0.08 2.03
7:53 am 07:53 Cloudy with Thunderstorms 74 23.3 63 17.2 69 69 ENE 7 11 29.87 1012 10 16 0.08 2.03
8:01 am 08:01 Cloudy with Light Rain 75 23.9 62 16.7 64 64 SSE 6 9 29.88 1012 3 5 0.03 0.76
8:53 am 08:53 Mostly Cloudy 75 23.9 63 17.2 66 66 SE 13 20 29.88 1012 10 16 0.04 1.02
9:53 am 09:53 Cloudy 76 24.4 61 16.1 60 60 undefined N/A 29.87 1011 10 16 0.00 0.03
10:53 am 10:53 Mostly Cloudy 79 26.1 61 16.1 54 54 S 16 26 29.86 1011 10 16 0.00 0.00
11:53 am 11:53 Sunny 87 30.6 62 16.7 43 43 SSE 16 26 29.85 1011 10 16 0.00 0.00
12:53 pm 12:53 Sunny 91 32.8 59 15 34 34 SSE 15 24 29.84 1011 10 16 0.00 0.00
1:53 pm 13:53 Mostly Sunny 94 34.4 57 13.9 29 29 S 13 20 29.82 1010 10 16 0.00 0.00
2:53 pm 14:53 Mostly Sunny 96 35.6 54 12.2 24 24 S 14 22 29.80 1009 10 16 0.00 0.00
3:53 pm 15:53 Mostly Sunny 99 37.2 54 12.2 22 22 SSE 21 33 29.78 1008 10 16 0.00 0.00
4:53 pm 16:53 Sunny 98 36.7 54 12.2 23 23 S 9 15 29.74 1007 10 16 0.00 0.00
5:53 pm 17:53 Sunny 98 36.7 54 12.2 23 23 SE 14 22 29.72 1007 10 16 0.00 0.00
6:53 pm 18:53 Sunny 97 36.1 56 13.3 25 25 SSE 18 30 29.72 1007 10 16 0.00 0.00
7:53 pm 19:53 Mostly Sunny 93 33.9 56 13.3 29 29 S 15 24 29.74 1007 10 16 0.00 0.00
8:38 pm 20:38 Cloudy 81 27.2 63 17.2 54 54 WNW 24 39 29.80 1009 10 16 0.00 0.00
8:53 pm 20:53 Cloudy with Light Rain 75 23.9 67 19.4 76 76 NW 26 43 29.85 1011 9 14 0.00 0.03
9:21 pm 21:21 Cloudy with Nearby Thunderstorms 73 22.8 67 19.4 81 81 NNW 24 39 29.85 1011 10 16 0.00 0.03
9:53 pm 21:53 Cloudy with Light Rain 74 23.3 66 18.9 76 76 NNW 22 35 29.90 1013 10 16 0.00 0.03
10:20 pm 22:20 Cloudy with Nearby Thunderstorms 72 22.2 67 19.4 84 84 N 21 33 29.88 1012 7 11 0.01 0.25
10:35 pm 22:35 Cloudy with Rain 71 21.7 67 19.4 87 87 N 18 30 29.94 1014 4 6 0.05 1.27
10:39 pm 22:39 Cloudy with Nearby Thunderstorms 71 21.7 67 19.4 87 87 N 17 28 29.94 1014 3 4 0.12 3.05
10:53 pm 22:53 Cloudy with Nearby Thunderstorms 70 21.1 67 19.4 90 90 N 18 30 29.92 1013 4 6 0.17 4.32
11:13 pm 23:13 Cloudy with Heavy Rain 71 21.7 66 18.9 84 84 N 15 24 29.94 1014 4 6 0.08 2.03
11:34 pm 23:34 Cloudy with Nearby Thunderstorms 71 21.7 66 18.9 84 84 NNE 12 19 29.94 1014 10 16 0.09 2.29
11:53 pm 23:53 Cloudy with Nearby Thunderstorms 71 21.7 67 19.4 87 87 NNE 8 13 29.91 1013 10 16 0.09 2.29

Powered by AerisWeather